Tracking 23726 objects as of 16-Oct-2021
HD Live streaming from Space Station
objects crossing your sky now

BREEZE-M DEB

Track BREEZE-M DEB now!
10-day predictions


NORAD ID: 38607
Int'l Code: 2008-011BE
Perigee: 959.6 km
Apogee: 26,387.7 km
Inclination: 49.7 °
Period: 470.7 minutes
Semi major axis: 20044 km
RCS: 0.0283 m2 (small)
Launch date: March 14, 2008
Source: Commonwealth of Independent States (former USSR) (CIS)
Launch site: TYURATAM MISSILE AND SPACE COMPLEX (TTMTR)

Note: This is SATELLITE DEBRIS
aabbcc
Your satellite tracking list
Your tracking list is empty




NASA's NSSDC Master Catalog

Two Line Element Set (TLE):
1 38607U 08011BE  21288.10944347 -.00000487  00000-0 -25460-1 0  9996
2 38607  49.6888 279.5578 6342845 352.7146  24.8975  3.05918072119665
Source of the keplerian elements: AFSPC